COMPLETED DISPATCHED CALLS FOR SERVICE

Welcome to the Jacksonville Sheriff’s Office Completed Dispatched Calls for Service webpage. This page displays calls for service made to the Jacksonville Sheriff's Office that have recently been completed. The data on this page is refreshed automatically.

This information is not intended to be used as official crime data. This program does not provide information about all crimes, and excludes specific incidents such as sexual assaults and child abuse.

Disclaimer: The Jacksonville Sheriff's Office makes every effort to produce and publish current and accurate information. No warranties, expressed or implied, are provided for the data herein, its use, or its interpretation. The services provided are for informational purposes only and should not be relied on for any type of legal action.

Last refreshed 12/19 06:20:43

Incident # Dispatched Block Address Signal Call Description  
181219865215 12-19 06:01 N I95 EXPWY AND S I295 EXPWY 1050 TRAFFIC STOP
181219865204 12-19 06:00 1000 BARBER ST 63 DISPUTE
181219865190 12-19 05:32 E UNION ST AND N OCEAN ST 1066 CANCEL
181219865191 12-19 05:31 1400 W STATE ST 0 63 ARMED DISPUTE
181219865193 12-19 05:23 7100 PHILIPS HWY 13 SUSPICIOUS PERSON
181219865192 12-19 05:22 6900 MUFFET CT 76 ASSIST OTHER AGENCY
181219865185 12-19 05:09 E I10 EXPWY AND S LANE AVE 1050 TRAFFIC STOP
181219865183 12-19 05:07 3000 PRESERVE LANDING DR 22 DOMESTIC
181219865181 12-19 05:02 5000 SEABOARD AVE 76 ASSIST OTHER AGENCY
181219865167 12-19 04:35 1900 ATLANTIC BLVD 63 DISPUTE
181219865163 12-19 04:22 12900 BROXTON BAY DR 13 SUSPICIOUS PERSON
181219865155 12-19 04:09 1200 CLAUDIA SPENCER ST 76 ASSIST OTHER AGENCY
181219865129 12-19 04:03 12600 E MISTY MOUNTAIN DR 63 DISPUTE
181219865147 12-19 03:55 N I295 EXPWY AND WILSON BLVD 13 SUSPICIOUS PERSON
181219865143 12-19 03:54 6400 CRIMSON LEAF LN 10J VEHICLE THEFT JUST OCCURRED
181219865141 12-19 03:52 6500 PRITCHARD RD 16 ROAD OBSTRUCTION
181219865140 12-19 03:50 W 55TH ST AND N MAIN ST 33 DISCHARGING OF FIREARM
181219865135 12-19 03:48 1600 ART MUSEUM DR 21B BURGLARY BUSINESS
181219865134 12-19 03:40 S I295 EXPWY AND MERRILL RD 1050 TRAFFIC STOP
181219865124 12-19 03:35 7600 BROCKHURST DR 0 23IJ ARMED ROBBERY INDIVIDUAL JUST OCCURRED
181219865104 12-19 03:18 1000 WILLOW BRANCH AVE 13 SUSPICIOUS PERSON
181219865103 12-19 03:16 600 N OCEAN ST 27 MENTALLY ILL PERSON
181219865113 12-19 03:16 ARLINGTON EXPWY AND ATLANTIC BLVD 1050 TRAFFIC STOP
181219865109 12-19 03:14 5400 SAN JUAN AVE 3 53 HIT AND RUN CRASH W/FIRE
181219865106 12-19 03:12 1700 W 22ND ST 22 DOMESTIC
181219865101 12-19 02:58 MATTHEW UNGAR DR AND HARBOR WINDS DR 1050 TRAFFIC STOP
181219865100 12-19 02:57 2700 HUFFMAN BLVD 13 SUSPICIOUS PERSON
181219865099 12-19 02:57 5600 SAN JOSE BLVD 37 UNVERIFIED 911 CALL
181219865097 12-19 02:56 8000 ARLINGTON EXPWY 13 SUSPICIOUS PERSON
181219865093 12-19 02:48 12900 N HAVERFORD RD 60 SUICIDE OR ATTEMPT
181219865090 12-19 02:44 600 N OCEAN ST 73 DRUG INVESTIGATION
181219865077 12-19 02:44 SOARING FLIGHT WAY AND SWEETFERN LN 13 SUSPICIOUS PERSON
181219865089 12-19 02:41 3800 GLADYS ST 22 DOMESTIC
181219865088 12-19 02:40 3900 OLDFIELD CROSSING DR 22 DOMESTIC
181219865084 12-19 02:36 ARLINGTON EXPWY AND N ARLINGTON RD 1050 TRAFFIC STOP
181219865079 12-19 02:33 9800 OLD BAYMA 1050 TRAFFIC STOP
181219865075 12-19 02:32 2700 TALLEYRAND AVE 3 HIT AND RUN CRASH
181219865076 12-19 02:31 3600 S KERNAN BLVD 9 THEFT
181219865057 12-19 02:26 10500 DODD RD 63 DISPUTE
181219865068 12-19 02:20 NORMANDY BLVD AND FOURAKER RD 22 DOMESTIC
181219865070 12-19 02:19 E 61ST ST AND NORTHLAND ST 63 DISPUTE
181219865065 12-19 02:17 11900 HARMONY DR 2 63 DISPUTE IMPAIRED/INTOXICATED
181219865066 12-19 02:14 1900 ROGERO RD 13 SUSPICIOUS PERSON
181219865059 12-19 02:09 1100 W 21ST ST 22 DOMESTIC
181219865062 12-19 02:08 KINGS RD AND WHITNER ST 60 SUICIDE OR ATTEMPT
181219865010 12-19 02:06 11400 MONUMENT RIDGE DR 3 HIT AND RUN CRASH
181219865055 12-19 02:01 PHILIPS HWY AND EMERSON ST 1050 TRAFFIC STOP
181219865052 12-19 01:57 12900 N HAVERFORD RD 2 IMPAIRED/INTOXICATED
181219865042 12-19 01:54 3100 FT JACKSON DR 2 IMPAIRED/INTOXICATED
181219865043 12-19 01:47 PLAYA WAY AND CALIENTE DR 64 NOISE COMPLAINT
181219865041 12-19 01:47 10500 DODD RD 64 NOISE COMPLAINT
181219865039 12-19 01:43 8500 NORMANDY BLVD 13 SUSPICIOUS PERSON
181219865045 12-19 01:43 8200 W PRINCETON SQUARE BLVD 2 63 DISPUTE IMPAIRED/INTOXICATED
181219865021 12-19 01:41 2900 SRA1A 2288 DOMESTIC DISPUTE WITH/ASSAULT
181219865032 12-19 01:39 3600 WARRINGTON ST 63 DISPUTE
181219865038 12-19 01:38 500 E BAY ST 35 OFFICER NEEDS ASSIST
181219865036 12-19 01:35 10500 LEM TURNER RD 76 ASSIST OTHER AGENCY
181219865033 12-19 01:34 7600 BLANDING BLVD 10J VEHICLE THEFT JUST OCCURRED
181219865030 12-19 01:32 10500 DE PAUL DR 13 SUSPICIOUS PERSON
181219865028 12-19 01:28 W 21ST ST AND BOULEVARD 1050 TRAFFIC STOP
181219865026 12-19 01:28 NORMANDY BLVD AND S CHAFFEE RD 16 ROAD OBSTRUCTION
181219865020 12-19 01:28 7500 COLLINS CT 63 DISPUTE
181219865024 12-19 01:25 3200 W BOURBON ALY 76 ASSIST OTHER AGENCY
181219865023 12-19 01:23 W 23RD ST AND N PEARL ST 1050 TRAFFIC STOP
181219864998 12-19 01:23 8200 DAMES POINT CROSSING BLVD 64 NOISE COMPLAINT
181219865019 12-19 01:20 W 22ND ST AND N MAIN ST 1050 TRAFFIC STOP
181219865016 12-19 01:18 1500 MCCONIHE ST 63 DISPUTE
181219865009 12-19 01:17 6700 WILSON BLVD 63 DISPUTE
181219865015 12-19 01:16 103RD ST AND SHINDLER DR 1050 TRAFFIC STOP
181219865007 12-19 01:07 6600 SAN JUAN AVE 63 DISPUTE
181219865001 12-19 01:04 K256 1050 TRAFFIC STOP
181219864999 12-19 00:59 600 N NEWNAN ST 95 FRAUD/FORGED (CHECK, ID, RX)
181219864997 12-19 00:57 4000 UNIVERSITY BLVD 13 SUSPICIOUS PERSON
181219864995 12-19 00:57 600 N LINCOLN CT 88P ASSAULT IN PROGRESS
181219864994 12-19 00:56 S LANE AVE AND STUART AVE 1050 TRAFFIC STOP
181219864993 12-19 00:54 1200 AIRPORT RD 63 DISPUTE
181219864992 12-19 00:51 1000 S EDGEWOOD AVE 0 23BJ ARMED ROBBERY BUSINESS JUST OCCURRED
181219864968 12-19 00:50 900 KING ST 2288 DOMESTIC DISPUTE WITH/ASSAULT
181219864987 12-19 00:48 500 E 61ST ST 3388 DISCHARGING FIREARM AT PERSON
181219864989 12-19 00:48 J TURNER BUTLER BLVD AND BELFORT RD 1050 TRAFFIC STOP
181219864956 12-19 00:46 NORWOOD AVE AND W 44TH ST 63 DISPUTE
181219864988 12-19 00:46 ATLANTIC BLVD AND ARLINGTON EXPWY 1050 TRAFFIC STOP
181219864984 12-19 00:46 8700 SOUTHSIDE BLVD 33 DISCHARGING OF FIREARM
181219864966 12-19 00:44 1200 DENAUD ST 2 22 DOMESTIC DISTURBANCE
181219864983 12-19 00:43 1000 W 31ST ST 2288 DOMESTIC DISPUTE WITH/ASSAULT
181219864982 12-19 00:42 7900 GEORGIA JACK CT 37 UNVERIFIED 911 CALL
181219864941 12-19 00:42 2900 RAYFORD ST 1066 CANCEL
181218864922 12-19 00:37 1300 HAMILTON ST 63 DISPUTE
181219864978 12-19 00:37 1300 KINGS RD 2 63 DISPUTE IMPAIRED/INTOXICATED
181219864972 12-19 00:36 9500 103RD ST 61 FIGHT
181219864980 12-19 00:35 8400 118TH ST 13 SUSPICIOUS PERSON
181219864979 12-19 00:35 12200 KERNAN FOREST BLVD 13 SUSPICIOUS PERSON
181219864976 12-19 00:34 500 E ADAMS ST 49 REPORT TO HOSPITAL
181218864903 12-19 00:32 4500 BARNES RD 63 DISPUTE
181219864973 12-19 00:32 11800 POYDRAS LN 13 SUSPICIOUS PERSON
181219864975 12-19 00:32 E 8TH ST AND EGNER ST 1050 TRAFFIC STOP
181219864942 12-19 00:31 3200 BRACHENBURY LN 2288 DOMESTIC DISPUTE WITH/ASSAULT
181219864970 12-19 00:27 600 W 8TH ST 10 VEHICLE THEFT
181219864965 12-19 00:25 1800 LAMBERT ST 0 63 ARMED DISPUTE
181219864964 12-19 00:24 8000 E BAYMEADOWS CIR 63 DISPUTE
181219864958 12-19 00:16 500 DUVAL CIR 22 DOMESTIC
181219864957 12-19 00:15 2800 S SAN PABLO RD 1050 TRAFFIC STOP
181219864940 12-19 00:14 7500 COLLINS CT 2288 DOMESTIC DISPUTE WITH/ASSAULT
181219864953 12-19 00:12 1900 N DAVIS ST 1050 TRAFFIC STOP
181219864950 12-19 00:10 1000 W 31ST ST 37 UNVERIFIED 911 CALL
181219864949 12-19 00:09 BEACH BLVD AND S KERNAN BLVD 1050 TRAFFIC STOP
181219864947 12-19 00:06 8600 BAYMEADOWS RD 1050 TRAFFIC STOP
181219864946 12-19 00:05 2700 HUFFMAN BLVD 13 SUSPICIOUS PERSON
181219864945 12-19 00:05 600 W 11TH ST 13 SUSPICIOUS PERSON
181218864893 12-19 00:01 3600 ROGERO RD 63 DISPUTE
181218864923 12-19 00:00 4500 S NARANJA DR 64 NOISE COMPLAINT
181218864936 12-18 23:59 5200 BOILARD DR 27 MENTALLY ILL PERSON
181218864937 12-18 23:58 W 23RD ST AND N PEARL ST 1050 TRAFFIC STOP
181218864934 12-18 23:57 E 8TH ST AND IONIA ST 1050 TRAFFIC STOP
181218864858 12-18 23:56 PICKETTVILLE RD AND JACKS RD 64 NOISE COMPLAINT
181218864904 12-18 23:55 7900 STEAMBOAT SPRINGS DR 8 MISSING PERSON
181218864932 12-18 23:55 200 W UNION ST 13 SUSPICIOUS PERSON
181218864931 12-18 23:55 ATLANTIC BLVD AND S ST JOHNS BLUFF RD 1050 TRAFFIC STOP
181218864911 12-18 23:54 8800 S TAURUS CIR 22 DOMESTIC
181218864921 12-18 23:48 DUNN AVE AND W PINE ESTATES RD 64 NOISE COMPLAINT
181218864909 12-18 23:48 4200 WINDERGATE DR 63 DISPUTE
181218864915 12-18 23:47 1200 S LANE AVE 13 SUSPICIOUS PERSON
181218864924 12-18 23:46 E 27TH ST AND BUCKMAN ST 1050 TRAFFIC STOP
181218864898 12-18 23:44 12000 ABESS BLVD 63 DISPUTE
181218864919 12-18 23:43 BAYBERRY RD AND BAYMEADOWS RD 1050 TRAFFIC STOP
181218864914 12-18 23:41 JUSTINA RD AND TALL PINE LN 1050 TRAFFIC STOP
181218864910 12-18 23:40 4600 BLANDING BLVD 2 63 DISPUTE IMPAIRED/INTOXICATED
181218864907 12-18 23:39 6000 YOUNGERMAN CR 13 SUSPICIOUS PERSON
181218864895 12-18 23:39 6500 W LA MIRADA DR 64 NOISE COMPLAINT
181218864871 12-18 23:38 8400 W GATE PKWY 63 DISPUTE
181218864875 12-18 23:37 8600 NEW KINGS RD 73 DRUG INVESTIGATION
181218864874 12-18 23:35 5300 110TH ST 63 DISPUTE
181218864869 12-18 23:30 10800 OLD GAINESVILLE RD 63 DISPUTE
181218864890 12-18 23:29 800 FRANKLIN ST 64 NOISE COMPLAINT
181218864892 12-18 23:29 SUNI PINES BLVD AND ASCOT DR 1050 TRAFFIC STOP
181218864817 12-18 23:26 5100 ROSSELLE ST 22 DOMESTIC
181218864886 12-18 23:26 1100 BRANDYWINE ST 13 SUSPICIOUS PERSON
181218864888 12-18 23:25 E 63RD ST AND BLOXHAM AVE 1050 TRAFFIC STOP
181218864885 12-18 23:24 12900 ATLANTIC BLVD 76 ASSIST OTHER AGENCY
181218864884 12-18 23:23 S KERNAN BLVD AND BEACH BLVD 64 NOISE COMPLAINT
181218864881 12-18 23:22 100 NITRAM AVE 1050 TRAFFIC STOP
181218864838 12-18 23:22 6600 SAN JUAN AVE 63 DISPUTE
181218864880 12-18 23:21 3000 SUNI PINES BLVD 1050 TRAFFIC STOP
181218864879 12-18 23:20 500 E ADAMS ST 50 FOUND/ABANDONED PROPERTY
181218864878 12-18 23:19 500 DUVAL STATION 13 SUSPICIOUS PERSON
181218864870 12-18 23:18 13100 BROXTON BAY DR 63 DISPUTE
181218864873 12-18 23:17 4300 N MAIN ST 23I ROBBERY INDIVIDUAL
181218864868 12-18 23:15 WILSON BLVD AND MACGREGOR DR 1050 TRAFFIC STOP
181218864867 12-18 23:14 TIMUQUANA RD AND ORTEGA FARMS BLVD 1050 TRAFFIC STOP
181218864864 12-18 23:13 3500 CLIFFORD LN 63 DISPUTE
181218864865 12-18 23:12 500 DUVAL STATION RD 13 SUSPICIOUS PERSON
181218864863 12-18 23:09 5500 FT CAROLINE RD 37 UNVERIFIED 911 CALL
181218864846 12-18 23:08 10100 ARROWHEAD DR 22 DOMESTIC
181218864859 12-18 23:07 MERRILL RD AND ROGERO RD 1050 TRAFFIC STOP
181218864853 12-18 23:06 4400 CONFEDERATE POINT RD 56 JUVENILE COMPLAINT
181218864857 12-18 23:06 400 W 70TH ST 33 DISCHARGING OF FIREARM
181218864852 12-18 23:06 5400 SPRINGFIELD BLVD 76 ASSIST OTHER AGENCY
181218864855 12-18 23:06 10500 DEERWOOD PARK BLVD 60 SUICIDE OR ATTEMPT
181218864856 12-18 23:05 10400 SAN JOSE BLVD 13 SUSPICIOUS PERSON
181218864849 12-18 23:05 12300 PRESIDENTS CT 1066 CANCEL
181218864843 12-18 23:04 10700 OGALLA AVE 63 DISPUTE
181218864847 12-18 23:03 BLOXHAM AVE AND E 60TH ST 33 DISCHARGING OF FIREARM
181218864844 12-18 23:03 LAWTON AVE AND WAKEFIELD AVE 33 DISCHARGING OF FIREARM
181218864845 12-18 23:01 WHEELING LN AND FRESNO DR 13 SUSPICIOUS PERSON
181218864841 12-18 23:00 S LANE AVE AND WILSON BLVD 1050 TRAFFIC STOP
181218864840 12-18 23:00 N BOWLAN ST AND HARE AVE 1050 TRAFFIC STOP
181218864839 12-18 23:00 4000 N GLENHURST DR 1 IMPAIRED/DRUNK DRIVER
181218864837 12-18 22:59 BEACH BLVD AND HODGES BLVD 1050 TRAFFIC STOP
181218864829 12-18 22:58 8100 SANTILLO DR 60 SUICIDE OR ATTEMPT
181218864833 12-18 22:58 105TH ST AND WESCONNETT BLVD 1050 TRAFFIC STOP
181218864832 12-18 22:57 4500 SOUTHSIDE BLVD 73 DRUG INVESTIGATION
181218864831 12-18 22:57 W 12TH ST AND WEST PALM AVE 1050 TRAFFIC STOP
181218864830 12-18 22:56 S FRESNO DR AND NASHUA DR 1050 TRAFFIC STOP
181218864828 12-18 22:54 10000 ATLANTIC BLVD 1050 TRAFFIC STOP
181218864827 12-18 22:52 GREYFRIAR LN AND WATERGATE LN 1050 TRAFFIC STOP
181218864824 12-18 22:51 RAMPART RD AND N LONGHORN CIR 1050 TRAFFIC STOP
181218864822 12-18 22:50 200 W UNION ST 13 SUSPICIOUS PERSON
181218864821 12-18 22:49 SAN JUAN AVE AND ROOSEVELT BLVD 1050 TRAFFIC STOP
181218864820 12-18 22:48 MURRAY DR AND LAWNVIEW ST 1050 TRAFFIC STOP
181218864806 12-18 22:46 6500 RAMONA BLVD 63 DISPUTE
181218864796 12-18 22:44 1500 S LANE AVE 22 DOMESTIC
181218864816 12-18 22:43 6500 103RD ST 13 SUSPICIOUS PERSON
181218864812 12-18 22:43 15300 BAREBACK DR 13 SUSPICIOUS PERSON
181218864815 12-18 22:43 2700 ENDEAVOUR LN 13 SUSPICIOUS PERSON
181218864805 12-18 22:42 14200 E SUMMER BREEZE DR 63 DISPUTE
181218864811 12-18 22:42 NEW KINGS RD AND N EDGEWOOD AVE 1050 TRAFFIC STOP
181218864809 12-18 22:41 6800 ROOSEVELT BLVD 76 ASSIST OTHER AGENCY
181218864808 12-18 22:40 N MAIN ST AND MARTIN LUTHER KING JR PKWY 1050 TRAFFIC STOP
181218864807 12-18 22:40 RICKER RD AND N OLD MIDDLEBURG RD 1050 TRAFFIC STOP
181218864804 12-18 22:39 N EDGEWOOD AVE AND LUCILLE RD 1050 TRAFFIC STOP
181218864803 12-18 22:39 E 25TH ST AND N MAIN ST 1050 TRAFFIC STOP
181218864802 12-18 22:38 NORWOOD/I95 16 ROAD OBSTRUCTION
181218864780 12-18 22:38 9300 103RD ST 63 DISPUTE
181218864801 12-18 22:37 5000 HARLOW BLVD 1050 TRAFFIC STOP
181218864798 12-18 22:37 PHILIPS HWY AND SOUTHSIDE BLVD 27 MENTALLY ILL PERSON
181218864799 12-18 22:36 2000 HYDE PARK RD 1066 CANCEL
181218864777 12-18 22:35 2800 HERSCHEL ST 63 DISPUTE
181218864797 12-18 22:35 200 W 9TH ST 2288 DOMESTIC DISPUTE WITH/ASSAULT
181218864795 12-18 22:34 800 WATERBIRD LN 1050 TRAFFIC STOP
181218864794 12-18 22:33 PHILIPS HWY AND W UNIVERSITY BLVD 1050 TRAFFIC STOP
181218864793 12-18 22:33 BELFORT RD AND J TURNER BUTLER BLVD 1050 TRAFFIC STOP
181218864792 12-18 22:33 103RD ST AND FIRESTONE RD 1050 TRAFFIC STOP
181218864791 12-18 22:32 W 25TH ST AND BOULEVARD 1050 TRAFFIC STOP
181218864789 12-18 22:32 S MCDUFF AVE AND WARRINGTON ST 1050 TRAFFIC STOP
181218864788 12-18 22:31 W GATE PKWY AND DEERWOOD LAKE PKWY 16 ROAD OBSTRUCTION
181218864782 12-18 22:31 6100 YOUNGERMAN CIR 1066 CANCEL
181218864785 12-18 22:29 RICKER RD AND RABORN LN 1050 TRAFFIC STOP
181218864784 12-18 22:29 8TH/DR ROY BAKER 1050 TRAFFIC STOP
181218864766 12-18 22:27 7600 103RD ST 11 ABANDONED VEHICLE
181218864778 12-18 22:26 103/JAMM 1050 TRAFFIC STOP
181218864774 12-18 22:25 6600 BENNETT CREEK DR 9J THEFT JUST OCCURRED
181218864771 12-18 22:22 800 BERT RD 21C BURGLARY CONVEYANCE
181218864765 12-18 22:21 3100 GARDEN BROOK RD 8 MISSING PERSON
181218864769 12-18 22:21 9500 ARLINGTON EXPWY 1050 TRAFFIC STOP
181218864758 12-18 22:21 PHILIPS HWY AND SOUTHSIDE BLVD 27 MENTALLY ILL PERSON
181218864768 12-18 22:21 ATLANTIC BLVD AND GIRVIN RD 1050 TRAFFIC STOP
181218864767 12-18 22:20 N EDGEWOOD AVE AND W 5TH ST 1050 TRAFFIC STOP
181218864764 12-18 22:18 SOUTHSIDE BLVD AND TOUCHTON RD 1050 TRAFFIC STOP
181218864763 12-18 22:18 HAMILTON ST AND ST JOHNS AVE 13 SUSPICIOUS PERSON
181218864757 12-18 22:17 4800 ORTEGA FOREST DR 1066 CANCEL
181218864756 12-18 22:12 21ST/MAIN 1050 TRAFFIC STOP
181218864754 12-18 22:11 8900 POLK AVE 4 53 TRAFFIC CRASH PERSON INJURED
181218864751 12-18 22:10 5200 E LA VENTURA DR 1066 CANCEL
181218864750 12-18 22:09 1000 FRAZIER ST 76 ASSIST OTHER AGENCY
181218864752 12-18 22:09 7900 TALLAHASSEE AVE 10R VEHICLE THEFT RECOVERY
181218864748 12-18 22:07 7900 TALLAHASSEE AVE 10R VEHICLE THEFT RECOVERY
181218864745 12-18 22:07 ATLANTIC BLVD AND LEE RD 1050 TRAFFIC STOP
181218864744 12-18 22:06 ROOSEVELT BLVD AND ORTEGA FOREST DR 1050 TRAFFIC STOP
181218864741 12-18 22:05 7200 LONGLEAF BRANCH DR 64 NOISE COMPLAINT
181218864735 12-18 22:03 1300 INGLESIDE AVE 63 DISPUTE
181218864739 12-18 22:03 BEACH BLVD AND HODGES BLVD 1050 TRAFFIC STOP
181218864703 12-18 22:03 6800 SKAFF AVE 2 22 DOMESTIC DISTURBANCE
181218864736 12-18 22:03 N I95 EXPWY AND W FORSYTH ST 16 ROAD OBSTRUCTION
181218864706 12-18 21:59 500 STOCKTON ST 63 DISPUTE
181218864734 12-18 21:59 103RD ST AND RICKER RD 1050 TRAFFIC STOP
181218864732 12-18 21:57 W HICKORY CREEK BLVD AND ATLANTIC BLVD 1050 TRAFFIC STOP
181218864731 12-18 21:56 6300 BEACH BLVD 76 ASSIST OTHER AGENCY
181218864728 12-18 21:56 E I10 EXPWY AND STOCKTON ST 16 ROAD OBSTRUCTION
181218864729 12-18 21:56 E I10 EXPWY AND S I95 EXPWY 16 ROAD OBSTRUCTION
181218864730 12-18 21:56 MARTIN LUTHER KING JR PKWY AND N PEARL ST 1050 TRAFFIC STOP
181218864726 12-18 21:56 W I10 EXPWY AND FOREST ST 16 ROAD OBSTRUCTION
181218864727 12-18 21:55 5800 MONCRIEF RD 1050 TRAFFIC STOP
181218864723 12-18 21:54 13800 PANTHER RD 2 63 DISPUTE IMPAIRED/INTOXICATED
181218864724 12-18 21:52 TIMUQUANA RD AND CATOMA ST 1050 TRAFFIC STOP
181218864718 12-18 21:48 4400 CONFEDERATE POINT RD 13 SUSPICIOUS PERSON
181218864719 12-18 21:48 N DAVIS ST AND GOLFAIR BLVD 1050 TRAFFIC STOP
181218864711 12-18 21:47 1200 N BROAD ST 63 DISPUTE
181218864717 12-18 21:47 103RD ST AND S OLD MIDDLEBURG RD 1050 TRAFFIC STOP
181218864712 12-18 21:45 SOUTHERN OAKS DR AND SILK LEAF LN 13 SUSPICIOUS PERSON
181218864680 12-18 21:45 3500 UNIVERSITY BLVD 64 NOISE COMPLAINT
181218864694 12-18 21:45 7900 MERRILL RD 64 NOISE COMPLAINT
181218864715 12-18 21:44 2600 N OLD MIDDLEBURG RD 2 63 DISPUTE IMPAIRED/INTOXICATED
181218864702 12-18 21:43 3700 EMERSON ST 63 DISPUTE
181218864713 12-18 21:43 10900 LEM TURNER RD 57 PERSON CALLING FOR HELP
181218864710 12-18 21:40 1100 SUEMAC RD 13 SUSPICIOUS PERSON
181218864679 12-18 21:38 1300 GRIFLET RD 4 AUTO CRASH
181218864662 12-18 21:38 3500 CESERY BLVD 22 DOMESTIC
181218864704 12-18 21:38 3700 S ST JOHNS BLUFF RD 2288 DOMESTIC DISPUTE WITH/ASSAULT
181218864705 12-18 21:37 2500 NEW BERLIN RD 63 DISPUTE
181218864701 12-18 21:36 103RD ST AND VALDURA AVE 1050 TRAFFIC STOP
181218864695 12-18 21:34 1700 HODGES BLVD 56 JUVENILE COMPLAINT
181218864699 12-18 21:34 J TURNER BUTLER BLVD AND S SAN PABLO RD 96 ASSIST MOTORIST
181218864698 12-18 21:34 2700 STARRATT RD 96 ASSIST MOTORIST
181218864697 12-18 21:33 OAK ARBOR CIR AND HONEYDEW LN 1050 TRAFFIC STOP
181218864696 12-18 21:32 WILSON BLVD AND FIRESTONE RD 1050 TRAFFIC STOP
181218864693 12-18 21:30 5900 SUMNER CT 63 DISPUTE
181218864692 12-18 21:29 4700 TOWN CROSSING DR 5582 HOLDING ONE FOR SHOPLIFTING
181218864690 12-18 21:27 1000 S MCDUFF AVE 9J THEFT JUST OCCURRED
181218864623 12-18 21:25 8000 VIRGO ST 64 NOISE COMPLAINT
181218864691 12-18 21:24 E 50TH ST AND N MAIN ST 1050 TRAFFIC STOP
181218864676 12-18 21:22 8600 BLANDING BLVD 4 AUTO CRASH
181218864687 12-18 21:21 14900 MANDARIN RD 63 DISPUTE
181218864689 12-18 21:21 600 S CHAFFEE RD 50 FOUND/ABANDONED PROPERTY
181218864686 12-18 21:18 1800 VAN WERT AVE 1050 TRAFFIC STOP
181218864681 12-18 21:16 6700 RAMONA BLVD 22 DOMESTIC
181218864672 12-18 21:16 4800 PLYMOUTH ST 2 22 DOMESTIC DISTURBANCE
181218864682 12-18 21:16 1000 GOLFAIR BLVD 22 DOMESTIC
181218864632 12-18 21:13 11100 ENGLISH MOSS LN 8 MISSING PERSON
181218864637 12-18 21:13 9700 LILY RD 22 DOMESTIC
181218864677 12-18 21:12 3000 COLUMBUS AVE 1066 CANCEL
181218864668 12-18 21:12 3900 TOWNSEND BLVD 22 DOMESTIC
181218864675 12-18 21:12 2400 GLADE SPRINGS DR 13 SUSPICIOUS PERSON
181218864671 12-18 21:08 3400 BOULEVARD 22 DOMESTIC
181218864669 12-18 21:08 300 E 46TH ST 13 SUSPICIOUS PERSON
181218864661 12-18 21:06 5900 DAVON ST 63 DISPUTE
181218864665 12-18 21:05 N I295 EXPWY AND 103RD ST 96 ASSIST MOTORIST
181218864664 12-18 21:04 W EDGEWOOD AVE AND PAUL REVERE DR 1050 TRAFFIC STOP
181218864659 12-18 21:03 MINDANAO DR AND ATLANTIC BLVD 6388 DISPUTE WITH ASSAULT
181218864655 12-18 21:03 700 E MONTEGO RD 86T LOST PROPERTY (TELESERVE)
181218864652 12-18 21:02 6800 SKAFF AVE 86T LOST PROPERTY (TELESERVE)
181218864646 12-18 21:02 2000 HYDE PARK RD 63 DISPUTE
181218864660 12-18 21:01 W I10 EXPWY AND S CHAFFEE RD 1050 TRAFFIC STOP
181218864658 12-18 21:01 100 S DAMES POINT BRG 16 ROAD OBSTRUCTION
181218864657 12-18 21:00 BLANDING BLVD AND 118TH ST 1050 TRAFFIC STOP
181218864644 12-18 20:59 2800 W 6TH ST 2 63 DISPUTE IMPAIRED/INTOXICATED
181218864651 12-18 20:59 KING ARTHUR RD AND ARLINGTON RD 76 ASSIST OTHER AGENCY
181218864631 12-18 20:59 800 FRANKLIN ST 63 DISPUTE
181218864653 12-18 20:58 S MCDUFF AVE AND ROSSELLE ST 13 SUSPICIOUS PERSON
181218864650 12-18 20:57 7700 NORMANDY BLVD 1066 CANCEL
181218864647 12-18 20:56 CROWN POINT RD AND SAN JOSE BLVD 76 ASSIST OTHER AGENCY
181218864648 12-18 20:55 W GATE PKWY AND SOUTHSIDE BLVD 1050 TRAFFIC STOP
181218864643 12-18 20:52 ARLINGTON EXPWY AND UNIVERSITY BLVD 33 DISCHARGING OF FIREARM
181218864612 12-18 20:50 2100 W 12TH ST 9 THEFT
181218864617 12-18 20:50 1000 S US 301 HWY 4 AUTO CRASH
181218864640 12-18 20:49 6800 NORMANDY BLVD 63 DISPUTE
181218864635 12-18 20:49 6400 WINDING GREENS DR 4 AUTO CRASH
181218864636 12-18 20:49 RIVERSIDE AVE AND KING ST 1050 TRAFFIC STOP
181218864633 12-18 20:48 14900 MAX LEGGETT PKWY 4 AUTO CRASH
181218864629 12-18 20:48 1900 FOREST BLVD 21RJ BURGLARY RESIDENCE JUST OCCURRED
181218864624 12-18 20:46 1600 CANTERBURY ST 64 NOISE COMPLAINT
181218864630 12-18 20:46 2900 W 9TH ST 22 DOMESTIC
181218864559 12-18 20:44 2900 CHRISTOPHER RD 2 63 DISPUTE IMPAIRED/INTOXICATED
181218864626 12-18 20:44 9500 103RD ST 8 MISSING PERSON
181218864600 12-18 20:43 S MCDUFF AVE AND THOMAS ST 64 NOISE COMPLAINT
181218864625 12-18 20:41 W I10 EXPWY AND ROOSEVELT EXPWY 4 AUTO CRASH
181218864622 12-18 20:39 PHI/STEP 1050 TRAFFIC STOP
181218864619 12-18 20:38 10300 SHOPS LN 13 SUSPICIOUS PERSON
181218864583 12-18 20:38 6100 ARLINGTON EXPWY 2288 DOMESTIC DISPUTE WITH/ASSAULT
181218864613 12-18 20:35 700 N LINCOLN CT 9 THEFT
181218864616 12-18 20:34 STOCKTON/COLLEGE 1050 TRAFFIC STOP
181218864028 12-18 20:34 1000 E 24TH ST 1066 CANCEL
181218864610 12-18 20:34 103RD ST AND SHINDLER DR 4 AUTO CRASH
181218864615 12-18 20:34 4800 RIVER CITY DR 9J THEFT JUST OCCURRED
181218864614 12-18 20:32 2200 MC CARTY DR 60 SUICIDE OR ATTEMPT
181218864598 12-18 20:32 200 PERMENTO AVE 9 THEFT
181218864603 12-18 20:31 3700 ARROW FOREST DR 2288 DOMESTIC DISPUTE WITH/ASSAULT
181218864584 12-18 20:30 10300 SOUTHSIDE BLVD 63 DISPUTE
181218864574 12-18 20:30 16200 MAGNOLIA GROVE WAY 56 JUVENILE COMPLAINT
181218864609 12-18 20:29 N I295 EXPWY AND BLANDING BLVD 4 AUTO CRASH
181218864608 12-18 20:28 8600 E BAYMEADOWS RD 60 SUICIDE OR ATTEMPT
181218864601 12-18 20:28 10200 LEM TURNER RD 6388 DISPUTE WITH ASSAULT
181218864555 12-18 20:27 3500 UNIVERSITY BLVD 14C VANDALISM CONVEYANCE
181218864597 12-18 20:27 1800 WALNUT ST 2288 DOMESTIC DISPUTE WITH/ASSAULT
181218864606 12-18 20:26 REGENCY SQUARE BLVD AND MONUMENT RD 1050 TRAFFIC STOP
181218864605 12-18 20:25 4200 PHILIPS HWY 1050 TRAFFIC STOP
181218864604 12-18 20:25 W 27TH ST AND CHASE AVE 13 SUSPICIOUS PERSON
181218864602 12-18 20:25 4600 LONG BOW RD 76 ASSIST OTHER AGENCY
181218864588 12-18 20:23 4000 JONES BRANCH BLVD 22 DOMESTIC
181218864599 12-18 20:22 7200 PAUL HOWARD DR 60 SUICIDE OR ATTEMPT
181218864595 12-18 20:21 4600 SHIRLEY AVE 1066 CANCEL
181218864594 12-18 20:20 4000 LAURELWOOD DR 9T THEFT (TELESERVE)
181218864593 12-18 20:20 W 13TH ST AND N DAVIS ST 0 13 ARMED SUSPICIOUS PERSON
181218864589 12-18 20:18 2300 W EDGEWOOD AVE 2 63 DISPUTE IMPAIRED/INTOXICATED
181218864557 12-18 20:18 2600 SANDRA LN 63 DISPUTE
181218864591 12-18 20:18 1600 KENSINGTON GARDENS BLVD 1050 TRAFFIC STOP
181218864461 12-18 20:17 6800 BEACH BLVD 63 DISPUTE
181218864590 12-18 20:17 KINKAID RD AND FURY DR 13 SUSPICIOUS PERSON
181218864587 12-18 20:17 S OLD MIDDLEBURG RD AND ARGYLE FOREST BLVD 3 HIT AND RUN CRASH
181218864533 12-18 20:15 3000 CORONET LN 64 NOISE COMPLAINT
181218864565 12-18 20:15 7100 OAKWOOD DR 1066 CANCEL
181218864567 12-18 20:13 8500 COCOA AVE 2 63 DISPUTE IMPAIRED/INTOXICATED
181218864572 12-18 20:12 200 PERMENTO AVE 9T THEFT (TELESERVE)
181218864579 12-18 20:11 W 3RD ST AND N MAIN ST 73 DRUG INVESTIGATION
181218864564 12-18 20:11 10100 MELANIE AVE 2288 DOMESTIC DISPUTE WITH/ASSAULT
181218864581 12-18 20:11 W 30TH ST AND SILVER ST 1050 TRAFFIC STOP
181218864578 12-18 20:10 12400 OLD PLANK RD 1050 TRAFFIC STOP
181218864575 12-18 20:10 GOLFAIR BLVD AND PERRY ST 1050 TRAFFIC STOP
181218864573 12-18 20:09 103RD ST AND S OLD MIDDLEBURG RD 1050 TRAFFIC STOP
181218864571 12-18 20:08 500 E BAY ST 88 ASSAULT
181218864566 12-18 20:08 7200 VELVET OAKS CT 22 DOMESTIC
181218864541 12-18 20:07 7800 NEW KINGS RD 68 CON GAME/FLIM FLAM
181218864569 12-18 20:06 BLANDING BLVD AND TOWNSEND RD 96 ASSIST MOTORIST
181218864562 12-18 20:06 3700 RIVEREDGE DR 86T LOST PROPERTY (TELESERVE)
181218864563 12-18 20:04 1600 KENSINGTON GARDENS BLVD 1050 TRAFFIC STOP
181218864561 12-18 20:04 4400 BARNES RD 76 ASSIST OTHER AGENCY
181218864558 12-18 20:03 MONCRIEF RD AND W 34TH ST 1050 TRAFFIC STOP
181218864495 12-18 20:02 5800 NORMANDY BLVD 21C BURGLARY CONVEYANCE
181218864548 12-18 20:02 9600 SOUTHBROOK DR 37 UNVERIFIED 911 CALL
181218864554 12-18 20:02 W 13TH ST AND N DAVIS ST 0 13 ARMED SUSPICIOUS PERSON
181218864553 12-18 20:01 SAN JOSE BLVD AND OLD ST AUGUSTINE RD 4 AUTO CRASH
181218864551 12-18 20:01 103RD ST AND ROCKOLA RD 1050 TRAFFIC STOP
181218864549 12-18 20:00 103RD ST AND CALIFORNIA AVE 1050 TRAFFIC STOP
181218864547 12-18 19:59 4200 PHILIPS HWY 13 SUSPICIOUS PERSON
181218864546 12-18 19:59 E 27TH ST AND N MAIN ST 1050 TRAFFIC STOP
181218864502 12-18 19:59 7000 MERRILL RD 9J THEFT JUST OCCURRED
181218864517 12-18 19:59 5500 N UNIVERSITY CLUB BLVD 2 63 DISPUTE IMPAIRED/INTOXICATED
181218864523 12-18 19:58 10800 OLD GAINESVILLE RD 63 DISPUTE
181218864543 12-18 19:57 2200 MC CARTY DR 22 DOMESTIC
181218864538 12-18 19:57 N FONTANA CT AND N BROOKVIEW DR 16 ROAD OBSTRUCTION
181218864531 12-18 19:55 7700 LEM TURNER RD 86T LOST PROPERTY (TELESERVE)
181218864438 12-18 19:55 8300 S LAWFIN ST 64 NOISE COMPLAINT
181218864500 12-18 19:54 2400 SPRING PARK RD 63 DISPUTE
181218864535 12-18 19:54 1300 DUNN AVE 4 53 TRAFFIC CRASH PERSON INJURED
181218864532 12-18 19:53 100 SPRING ST 27 MENTALLY ILL PERSON
181218864473 12-18 19:53 7900 MERRILL RD 22 DOMESTIC
181218864529 12-18 19:52 103RD ST AND E LA VENTURA DR 1050 TRAFFIC STOP
181218864515 12-18 19:51 3600 S KERNAN BLVD 3 HIT AND RUN CRASH
181218864528 12-18 19:49 S I95 EXPWY AND BAYMEADOWS RD 1050 TRAFFIC STOP
181218864510 12-18 19:49 ATRIUM WAY AND MONUMENT RD 13 SUSPICIOUS PERSON
181218864525 12-18 19:48 BEACH BLVD AND ART MUSEUM DR 1050 TRAFFIC STOP
181218864521 12-18 19:47 6900 E LENOIR AVE 1066 CANCEL
181218864513 12-18 19:47 BEACH BLVD AND HICKMAN RD 4 53 TRAFFIC CRASH PERSON INJURED
181218864522 12-18 19:46 S I295 EXPWY AND BLANDING BLVD 1050 TRAFFIC STOP
181218864519 12-18 19:46 400 CENTURY 21 DR 88 ASSAULT
181218864497 12-18 19:44 2200 W 21ST ST 1066 CANCEL
181218864455 12-18 19:44 3800 BESSENT RD 63 DISPUTE
181218864507 12-18 19:43 4300 PHILIPS HWY 4 AUTO CRASH
181218864512 12-18 19:43 4800 CLYDE DR 22 DOMESTIC
181218864501 12-18 19:42 CRYSTAL SPRINGS RD AND CHAFFEE POINT BLVD 22 DOMESTIC
181218864511 12-18 19:42 6900 PARK CIR 33 DISCHARGING OF FIREARM
181218864450 12-18 19:41 500 S LANE AVE 2 63 DISPUTE IMPAIRED/INTOXICATED
181218864483 12-18 19:41 1400 PARENTAL HOME RD 13 SUSPICIOUS PERSON
181218864493 12-18 19:39 400 W 66TH ST 63 DISPUTE
181218864505 12-18 19:38 BEACH BLVD AND SPRING GLEN RD 1050 TRAFFIC STOP
181218864504 12-18 19:38 BLANDING BLVD AND IRVINGTON AVE 1050 TRAFFIC STOP
181218864498 12-18 19:36 22ND/SILVER 1050 TRAFFIC STOP
181218864496 12-18 19:36 5200 N NORWOOD AVE 10R VEHICLE THEFT RECOVERY
181218864494 12-18 19:35 SAN JOSE BLVD AND N I295 EXPWY 1050 TRAFFIC STOP
181218864445 12-18 19:34 6800 SKAFF AVE 86 LOST PROPERTY
181218864400 12-18 19:34 4100 DAVIE CT 63 DISPUTE
181218864491 12-18 19:33 900 MONUMENT RD 76 ASSIST OTHER AGENCY
181218864490 12-18 19:32 4500 SAN JUAN AVE 1 IMPAIRED/DRUNK DRIVER
181218864466 12-18 19:32 3600 WARRINGTON ST 63 DISPUTE
181218864478 12-18 19:32 1400 LE BARON AVE 13 SUSPICIOUS PERSON
181218864479 12-18 19:31 2500 W CANYON CREEK TRL 9 THEFT
181218864489 12-18 19:31 6700 103RD ST 1050 TRAFFIC STOP
181218864487 12-18 19:31 2100 W BRIGHTON BAY TRL 54 ILLEGALLY PARKED CAR
181218864486 12-18 19:30 S I295 EXPWY AND COLLINS RD 96 ASSIST MOTORIST
181218864469 12-18 19:29 1300 W STATE ST 63 DISPUTE
181218864481 12-18 19:29 10000 N AGAVE CIR 76 ASSIST OTHER AGENCY
181218864480 12-18 19:27 11500 SAN JOSE BLVD 1050 TRAFFIC STOP
181218864477 12-18 19:26 LAN/WIL 1050 TRAFFIC STOP
181218864474 12-18 19:26 1000 UNIVERSITY BLVD 60 SUICIDE OR ATTEMPT
181218864462 12-18 19:25 1800 DEAN RD 27 MENTALLY ILL PERSON
181218864433 12-18 19:24 7600 BLANDING BLVD 9 THEFT
181218864437 12-18 19:24 7500 ARLINGTON EXPWY 56 JUVENILE COMPLAINT
181218864472 12-18 19:23 13000 BEACH BLVD 1050 TRAFFIC STOP
181218864471 12-18 19:23 11300 BAYMEADOWS RD 4 AUTO CRASH
181218864454 12-18 19:22 8300 MOHAN CT 63 DISPUTE
181218864465 12-18 19:22 W U S 90 HWY AND S US 301 HWY 87 DAMAGED PROPERTY
181218864467 12-18 19:21 700 N MAIN ST 9J THEFT JUST OCCURRED
181218864459 12-18 19:20 4600 SALISBURY RD 63 DISPUTE
181218864463 12-18 19:19 11900 ATLANTIC 96 ASSIST MOTORIST
181218864460 12-18 19:16 500 S LANE AVE 96 ASSIST MOTORIST
181218864458 12-18 19:15 2200 ART MUSEUM DR 76 ASSIST OTHER AGENCY
181218864444 12-18 19:14 1700 GARDEN ST 54 ILLEGALLY PARKED CAR
181218864432 12-18 19:13 7500 N FAWN LAKE DR 37 UNVERIFIED 911 CALL
181218864441 12-18 19:12 700 MONTE CARLO RD 22 DOMESTIC
181218864424 12-18 19:12 6800 NORMANDY BLVD 4 AUTO CRASH
181218864403 12-18 19:11 3000 STARRATT RD 63 DISPUTE
181218864451 12-18 19:10 E I10 EXPWY AND CECIL COMMERCE CENTER PKWY 1050 TRAFFIC STOP
181218864353 12-18 19:09 100 S BUCKMAN BRG 96 ASSIST MOTORIST
181218864436 12-18 19:09 8000 MERRILL RD 37 UNVERIFIED 911 CALL
181218864393 12-18 19:09 11800 LEM TURNER RD 4 AUTO CRASH
181218864407 12-18 19:09 8900 6TH AVE 63 DISPUTE
181218864449 12-18 19:09 S LANE AVE AND WILSON BLVD 1050 TRAFFIC STOP
181218864364 12-18 19:08 E I10 EXPWY AND S US 301 HWY 96 ASSIST MOTORIST
181218864391 12-18 19:07 300 BLAIR RD 56 JUVENILE COMPLAINT
181218864377 12-18 19:07 500 S LANE AVE 63 DISPUTE
181218864347 12-18 19:07 5600 COLLINS RD 63 DISPUTE
181218864442 12-18 19:07 700 N MARKET ST 63 DISPUTE
181218864341 12-18 19:07 S I295 EXPWY AND COLLINS RD 96 ASSIST MOTORIST
181218864421 12-18 19:06 4200 PHILIPS HWY 63 DISPUTE
181218864272 12-18 19:06 6300 GASKINS RD 95 FRAUD/FORGED (CHECK, ID, RX)
181218864301 12-18 19:05 13700 BEACH BLVD 9 THEFT
181218864430 12-18 19:05 100 S BUCKMAN BRG 13 SUSPICIOUS PERSON
181218864365 12-18 19:04 9400 HARRIET AVE 63 DISPUTE
181218864252 12-18 19:04 1200 MULL ST 14R VANDALISM RESIDENCE
181218864428 12-18 19:03 2700 DEAN RD 22 DOMESTIC
181218864316 12-18 19:02 12000 CHEYENNE TRL 63 DISPUTE
181218864431 12-18 19:02 2000 W HOVINGTON CIR 54 ILLEGALLY PARKED CAR
181218864426 12-18 19:02 2600 N CLEAR CIR 95 FRAUD/FORGED (CHECK, ID, RX)
181218864111 12-18 19:01 4900 ORTEGA BLVD 95ID IDENTITY THEFT
181218864429 12-18 19:01 SAN JOSE BLVD AND MANDARIN RD 1050 TRAFFIC STOP
181218864427 12-18 19:01 10200 W BEAVER ST 3388 DISCHARGING FIREARM AT PERSON
181218864202 12-18 19:01 4400 CONFEDERATE POINT RD 6388 DISPUTE WITH ASSAULT
181218864404 12-18 19:01 11700 SAN JOSE BLVD 9 THEFT
181218864415 12-18 19:00 W FORSYTH ST AND N LEE ST 2 63 DISPUTE IMPAIRED/INTOXICATED
181218864313 12-18 19:00 N LANE AVE AND IRA RD 96 ASSIST MOTORIST
181218864379 12-18 18:59 1100 DUNN AVE 63 DISPUTE
181218864422 12-18 18:59 5800 NEW KINGS RD 9 THEFT
181218864423 12-18 18:59 MANDARIN MEADOWS DR AND SAN JOSE BLVD 4 AUTO CRASH
181218864414 12-18 18:59 5000 SEABOARD AVE 1066 CANCEL
181218864405 12-18 18:59 5800 SAN JUAN AVE 63 DISPUTE
181218864420 12-18 18:58 3800 BESSENT RD 76 ASSIST OTHER AGENCY
181218864315 12-18 18:58 2200 MC CARTY DR 22 DOMESTIC
181218864402 12-18 18:57 300 E 45TH ST 27 MENTALLY ILL PERSON
181218864273 12-18 18:57 1600 HAMMOND BLVD 63 DISPUTE
181218864419 12-18 18:57 N I295 EXPWY AND DUNN AVE 4 AUTO CRASH
181218864290 12-18 18:57 1000 REIMAN ST 63 DISPUTE
181218864411 12-18 18:56 GATE PKWY AND J TURNER BUTLER BLVD 4 AUTO CRASH
181218864323 12-18 18:56 6200 PEEPLES LN 63 DISPUTE
181218864342 12-18 18:56 100 W 25TH ST 22 DOMESTIC
181218864388 12-18 18:56 2800 W 9TH ST 63 DISPUTE
181218864368 12-18 18:56 8600 E BAYMEADOWS RD 63 DISPUTE
181218864413 12-18 18:55 MADISON ST AND W UNION ST 4 AUTO CRASH
181218864351 12-18 18:55 7900 CONCORD CIR 14R VANDALISM RESIDENCE
181218864378 12-18 18:55 S I295 EXPWY AND PRITCHARD RD 4 AUTO CRASH
181218864396 12-18 18:54 4900 MUSTANG RD 63 DISPUTE
181218864350 12-18 18:54 9000 GREENLEAF RD 22 DOMESTIC
181218864410 12-18 18:54 12500 REGINALD DR 54 ILLEGALLY PARKED CAR
181218864256 12-18 18:53 1400 BRETON RD 23I ROBBERY INDIVIDUAL
181218864319 12-18 18:52 11900 ATLANTIC BLVD 5582 HOLDING ONE FOR SHOPLIFTING
181218864401 12-18 18:52 9800 HUTCHINSON PARK DR 9P THEFT IN PROGRESS
181218864390 12-18 18:52 N I95 EXPWY AND E I10 EXPWY 4 AUTO CRASH
181218864372 12-18 18:51 SOUTHSIDE BLVD AND BAYMEADOWS RD 4 AUTO CRASH
181218864330 12-18 18:51 BELLE RIVE BLVD AND SOUTHSIDE BLVD 4 AUTO CRASH
181218864399 12-18 18:50 OTTERS RUN LN AND W AUTUMNBROOK TRL 1050 TRAFFIC STOP
181218864176 12-18 18:49 1600 OAKHURST AVE 10 VEHICLE THEFT
181218864332 12-18 18:48 900 W 30TH ST 22 DOMESTIC
181218864394 12-18 18:48 S I295 EXPWY AND COLLINS RD 1050 TRAFFIC STOP
181218864328 12-18 18:48 13800 N SUTTON PARK DR 22 DOMESTIC
181218864292 12-18 18:47 1100 GLENCARIN ST 21R BURGLARY RESIDENCE
181218864385 12-18 18:47 LEM TURNER RD AND PROSPECT ST 3 HIT AND RUN CRASH
181218864389 12-18 18:46 600 W BEAVER ST 61 FIGHT
181218864386 12-18 18:45 6700 COLLINS RD 76 ASSIST OTHER AGENCY
181218864384 12-18 18:44 S I95 EXPWY 4 AUTO CRASH
181218864253 12-18 18:44 6300 ROOSEVELT BLVD 9 THEFT
181218864383 12-18 18:43 6300 RACETRACK RD 76 ASSIST OTHER AGENCY
181218864382 12-18 18:43 8900 HERLONG RD 1050 TRAFFIC STOP
181218864380 12-18 18:42 OLD ST AUG/LOR 1050 TRAFFIC STOP
181218864333 12-18 18:42 S LANE AVE AND E I10 EXPWY 4 AUTO CRASH
181218864348 12-18 18:42 11300 RUSTIC PINES CIR 22 DOMESTIC
181218864296 12-18 18:41 2000 FOREST ST 4 AUTO CRASH
181218864369 12-18 18:41 SAN JOSE BLVD AND MANDARIN RD 4 AUTO CRASH
181218864322 12-18 18:41 TREDINICK PKWY AND COMMERCE CENTER DR 13 SUSPICIOUS PERSON
181218864297 12-18 18:40 600 STOCKTON ST 68 CON GAME/FLIM FLAM
181218864376 12-18 18:40 2000 W ST MARTINS DR 1050 TRAFFIC STOP
181218864373 12-18 18:40 3700 TOLEDO RD 1066 CANCEL
181218864231 12-18 18:40 6200 W PENNANT DR 63 DISPUTE
181218864331 12-18 18:39 LENOX AVE AND CASSAT AVE 4 AUTO CRASH
181218864374 12-18 18:39 7100 MERRILL RD 5582 HOLDING ONE FOR SHOPLIFTING
181218864207 12-18 18:37 11900 CHESTER CREEK RD 14R VANDALISM RESIDENCE
181218864335 12-18 18:36 9100 PROSPERITY LAKE DR 2288 DOMESTIC DISPUTE WITH/ASSAULT
181218864367 12-18 18:35 N I295 EXPWY AND DUVAL RD 4 AUTO CRASH
181218864170 12-18 18:35 COOKE ST AND RUTLEDGE AVE 11 ABANDONED VEHICLE
181218864361 12-18 18:32 700 VENUS-MARS CT 27 MENTALLY ILL PERSON
181218864270 12-18 18:30 2500 ORCHARD ST 21R BURGLARY RESIDENCE
181218864356 12-18 18:29 MARTIN LUTHER KING JR PKWY AND N MYRTLE AVE 4 AUTO CRASH
181218864318 12-18 18:28 PLYMOUTH ST AND LAKE SHORE BLVD 33 DISCHARGING OF FIREARM
181218864355 12-18 18:27 6900 E LENOIR AVE 76 ASSIST OTHER AGENCY
181218864349 12-18 18:27 S I295 EXPWY AND NEW KINGS RD 4 AUTO CRASH
181218864309 12-18 18:26 4800 W DEER LAKE DR 13 SUSPICIOUS PERSON
181218864294 12-18 18:26 10900 NEW KINGS RD 4 AUTO CRASH
181218864327 12-18 18:25 300 BOWLAN ST 61 FIGHT
181218864247 12-18 18:25 10600 NORTHWYCK DR 63 DISPUTE
181218864345 12-18 18:24 N I95 EXPWY AND W UNIVERSITY BLVD 4 AUTO CRASH
181218864336 12-18 18:24 N I95 EXPWY 4 AUTO CRASH
181218864344 12-18 18:22 3100 BICENTENNIAL DR 12 RECKLESS DRIVER
181218864339 12-18 18:22 12200 BIARRITZ ST 76 ASSIST OTHER AGENCY
181218864329 12-18 18:21 8100 POINT MEADOWS DR 1066 CANCEL
181218864325 12-18 18:21 3400 PHILIPS HWY 1066 CANCEL
181218864337 12-18 18:21 JULIE AVE AND S LANE AVE 76 ASSIST OTHER AGENCY
181218864338 12-18 18:19 OLD ST AUGUSTINE RD AND S I295 EXPWY 16 ROAD OBSTRUCTION
181218864320 12-18 18:18 300 W 24TH ST 61 FIGHT
181218864308 12-18 18:16 15200 MAX LEGGETT PKWY 8 MISSING PERSON
181218864285 12-18 18:15 1700 N MAIN ST 60 SUICIDE OR ATTEMPT
181218864288 12-18 18:15 RIVERSIDE AVE AND LEILA ST 16 ROAD OBSTRUCTION
181218864303 12-18 18:15 N I95 EXPWY AND BUSCHEXIT N I95 RP 1066 CANCEL
181218864238 12-18 18:14 1800 W 45TH ST 21R BURGLARY RESIDENCE
181218864321 12-18 18:12 N I95 EXPWY AND GOLFAIR BLVD 1050 TRAFFIC STOP
181218864250 12-18 18:12 S I95 EXPWY AND EMERSON ST 68 CON GAME/FLIM FLAM
181218864221 12-18 18:12 3900 COTTONWOOD LN 1066 CANCEL
181218864267 12-18 18:10 4900 SUNBEAM RD 63 DISPUTE
181218864278 12-18 18:09 6400 MILLWRIGHT CT 22 DOMESTIC
181218864299 12-18 18:08 ELKSTONE RD AND DEVONHURST DR 54 ILLEGALLY PARKED CAR
181218864300 12-18 18:08 800 OLD HICKORY RD 3 HIT AND RUN CRASH
181218864279 12-18 18:06 800 W 17TH ST 0 13 ARMED SUSPICIOUS PERSON
181218864306 12-18 18:05 12000 MCCORMICK RD 4 AUTO CRASH
181218864307 12-18 18:05 5400 SPRINGFIELD BLVD 2288 DOMESTIC DISPUTE WITH/ASSAULT
181218864305 12-18 18:03 9700 ATLANTIC BLVD 16 ROAD OBSTRUCTION
181218864187 12-18 18:03 11400 OAKLAWN RD 22 DOMESTIC
181218864281 12-18 18:03 BLANDING BLVD AND WESCONNETT BLVD 13 SUSPICIOUS PERSON
181218864304 12-18 18:02 MELVIN/FIRESTONE 1050 TRAFFIC STOP
181218864302 12-18 18:02 10300 SOUTHSIDE BLVD 0 23IJ ARMED ROBBERY INDIVIDUAL JUST OCCURRED